TimeCST,TemperatureF,Dew PointF,Humidity,Sea Level PressureIn,VisibilityMPH,Wind Direction,Wind SpeedMPH,Gust SpeedMPH,PrecipitationIn,Events,Conditions,WindDirDegrees,DateUTC
12:15 AM,17.6,-0.4,45,30.38,10.0,NNW,17.3,29.9,N/A,,Clear,330,2014-01-23 06:15:00
12:35 AM,15.8,-0.4,49,30.39,10.0,NNW,12.7,19.6,N/A,,Clear,330,2014-01-23 06:35:00
12:55 AM,14.0,-0.4,53,30.40,10.0,NNW,11.5,17.3,N/A,,Clear,340,2014-01-23 06:55:00
1:15 AM,14.0,-2.2,49,30.41,10.0,NW,13.8,25.3,N/A,,Clear,320,2014-01-23 07:15:00
1:35 AM,12.2,-4.0,48,30.43,10.0,North,11.5,19.6,N/A,,Clear,350,2014-01-23 07:35:00
1:55 AM,12.2,-2.2,53,30.44,10.0,NNW,13.8,18.4,N/A,,Clear,330,2014-01-23 07:55:00
2:15 AM,12.2,-0.4,57,30.46,10.0,NW,13.8,-,N/A,,Clear,320,2014-01-23 08:15:00
2:35 AM,10.4,-2.2,57,30.47,10.0,NW,17.3,21.9,N/A,,Clear,320,2014-01-23 08:35:00
2:55 AM,10.4,-5.8,48,30.48,10.0,NNW,12.7,19.6,N/A,,Clear,340,2014-01-23 08:55:00
3:15 AM,8.6,-5.8,52,30.49,10.0,NNW,11.5,24.2,N/A,,Clear,340,2014-01-23 09:15:00
3:35 AM,8.6,-5.8,52,30.50,10.0,NNW,8.1,19.6,N/A,,Clear,340,2014-01-23 09:35:00
3:55 AM,8.6,-4.0,57,30.51,10.0,NNW,9.2,-,N/A,,Clear,340,2014-01-23 09:55:00
4:15 AM,8.6,-4.0,57,30.51,10.0,NNW,6.9,-,N/A,,Clear,340,2014-01-23 10:15:00
4:35 AM,8.6,-4.0,57,30.53,10.0,NNW,11.5,-,N/A,,Clear,330,2014-01-23 10:35:00
4:55 AM,6.8,-4.0,61,30.54,10.0,NNW,9.2,-,N/A,,Clear,340,2014-01-23 10:55:00
5:15 AM,5.0,-4.0,66,30.56,10.0,NNW,9.2,-,N/A,,Clear,340,2014-01-23 11:15:00
5:35 AM,5.0,-4.0,66,30.57,10.0,NNW,8.1,-,N/A,,Clear,330,2014-01-23 11:35:00
5:55 AM,5.0,-5.8,61,30.59,10.0,NNW,11.5,-,N/A,,Clear,330,2014-01-23 11:55:00
6:15 AM,5.0,-7.6,56,30.59,10.0,NNW,8.1,-,N/A,,Clear,330,2014-01-23 12:15:00
6:35 AM,5.0,-5.8,61,30.62,10.0,NNW,6.9,-,N/A,,Clear,330,2014-01-23 12:35:00
6:55 AM,5.0,-5.8,61,30.62,10.0,NNW,5.8,-,N/A,,Clear,330,2014-01-23 12:55:00
7:15 AM,5.0,-4.0,66,30.63,10.0,NNW,8.1,-,N/A,,Clear,330,2014-01-23 13:15:00
7:35 AM,5.0,-4.0,66,30.65,10.0,NW,6.9,-,N/A,,Clear,320,2014-01-23 13:35:00
7:55 AM,5.0,-4.0,66,30.65,10.0,NW,10.4,-,N/A,,Clear,310,2014-01-23 13:55:00
8:15 AM,5.0,-4.0,66,30.66,10.0,NW,10.4,-,N/A,,Clear,320,2014-01-23 14:15:00
8:35 AM,5.0,-4.0,66,30.67,10.0,WNW,11.5,-,N/A,,Clear,300,2014-01-23 14:35:00
8:55 AM,6.8,-4.0,61,30.69,10.0,NW,12.7,-,N/A,,Clear,310,2014-01-23 14:55:00
9:15 AM,6.8,-5.8,56,30.70,10.0,NW,10.4,-,N/A,,Clear,320,2014-01-23 15:15:00
9:35 AM,8.6,-5.8,52,30.71,10.0,NW,11.5,18.4,N/A,,Clear,320,2014-01-23 15:35:00
9:55 AM,8.6,-5.8,52,30.72,10.0,NNW,10.4,17.3,N/A,,Clear,330,2014-01-23 15:55:00
10:15 AM,8.6,-5.8,52,30.73,10.0,NW,9.2,-,N/A,,Clear,310,2014-01-23 16:15:00
10:35 AM,8.6,-4.0,57,30.74,10.0,NW,9.2,-,N/A,,Clear,320,2014-01-23 16:35:00
10:55 AM,8.6,-5.8,52,30.74,10.0,NW,9.2,-,N/A,,Clear,310,2014-01-23 16:55:00
11:15 AM,8.6,-4.0,57,30.74,10.0,NW,8.1,-,N/A,,Clear,310,2014-01-23 17:15:00
11:35 AM,10.4,-5.8,48,30.74,10.0,NW,9.2,-,N/A,,Clear,310,2014-01-23 17:35:00
11:55 AM,10.4,-5.8,48,30.73,10.0,WNW,9.2,17.3,N/A,,Clear,290,2014-01-23 17:55:00
12:15 PM,10.4,-5.8,48,30.73,10.0,West,12.7,-,N/A,,Clear,280,2014-01-23 18:15:00
12:35 PM,10.4,-5.8,48,30.72,10.0,NW,9.2,-,N/A,,Clear,310,2014-01-23 18:35:00
12:55 PM,12.2,-5.8,45,30.72,10.0,WNW,8.1,-,N/A,,Clear,300,2014-01-23 18:55:00
1:15 PM,12.2,-5.8,45,30.72,10.0,WNW,10.4,-,N/A,,Clear,300,2014-01-23 19:15:00
1:35 PM,12.2,-5.8,45,30.72,10.0,WNW,8.1,17.3,N/A,,Clear,290,2014-01-23 19:35:00
1:55 PM,12.2,-5.8,45,30.71,10.0,NW,9.2,-,N/A,,Clear,310,2014-01-23 19:55:00
2:15 PM,12.2,-5.8,45,30.71,10.0,WNW,8.1,-,N/A,,Clear,290,2014-01-23 20:15:00
2:35 PM,12.2,-5.8,45,30.71,10.0,WNW,10.4,-,N/A,,Clear,290,2014-01-23 20:35:00
2:55 PM,14.0,-5.8,41,30.71,10.0,NW,8.1,-,N/A,,Clear,310,2014-01-23 20:55:00
3:15 PM,14.0,-5.8,41,30.71,10.0,NW,10.4,-,N/A,,Clear,310,2014-01-23 21:15:00
3:35 PM,14.0,-5.8,41,30.71,10.0,WNW,9.2,-,N/A,,Clear,300,2014-01-23 21:35:00
3:55 PM,14.0,-5.8,41,30.71,10.0,WNW,10.4,-,N/A,,Clear,300,2014-01-23 21:55:00
4:15 PM,15.8,-5.8,38,30.71,10.0,West,6.9,-,N/A,,Clear,270,2014-01-23 22:15:00
4:35 PM,14.0,-7.6,38,30.71,10.0,WNW,8.1,-,N/A,,Clear,290,2014-01-23 22:35:00
4:55 PM,14.0,-5.8,41,30.71,10.0,WNW,6.9,-,N/A,,Clear,300,2014-01-23 22:55:00
5:15 PM,14.0,-5.8,41,30.72,10.0,WNW,8.1,-,N/A,,Clear,290,2014-01-23 23:15:00
5:35 PM,12.2,-5.8,45,30.71,10.0,West,6.9,-,N/A,,Clear,280,2014-01-23 23:35:00
5:55 PM,12.2,-5.8,45,30.72,10.0,West,4.6,-,N/A,,Clear,270,2014-01-23 23:55:00
6:15 PM,12.2,-5.8,45,30.72,10.0,West,4.6,-,N/A,,Clear,260,2014-01-24 00:15:00
6:35 PM,12.2,-5.8,45,30.72,10.0,WSW,4.6,-,N/A,,Clear,250,2014-01-24 00:35:00
6:55 PM,10.4,-5.8,48,30.72,10.0,West,5.8,-,N/A,,Clear,260,2014-01-24 00:55:00
7:15 PM,10.4,-5.8,48,30.72,10.0,West,5.8,-,N/A,,Clear,260,2014-01-24 01:15:00
7:35 PM,10.4,-4.0,52,30.72,10.0,WSW,4.6,-,N/A,,Clear,250,2014-01-24 01:35:00
7:55 PM,10.4,-4.0,52,30.72,10.0,WSW,3.5,-,N/A,,Clear,250,2014-01-24 01:55:00
8:35 PM,8.6,-4.0,57,30.71,10.0,SW,5.8,-,N/A,,Clear,230,2014-01-24 02:35:00
8:55 PM,8.6,-4.0,57,30.71,10.0,WSW,4.6,-,N/A,,Clear,250,2014-01-24 02:55:00
9:15 PM,8.6,-4.0,57,30.71,10.0,WSW,5.8,-,N/A,,Clear,240,2014-01-24 03:15:00
9:55 PM,8.6,-4.0,57,30.72,10.0,WSW,4.6,-,N/A,,Clear,240,2014-01-24 03:55:00
10:15 PM,8.6,-4.0,57,30.72,10.0,WSW,4.6,-,N/A,,Clear,240,2014-01-24 04:15:00
10:35 PM,8.6,-4.0,57,30.72,10.0,WSW,4.6,-,N/A,,Clear,240,2014-01-24 04:35:00
10:55 PM,8.6,-4.0,57,30.71,10.0,SW,4.6,-,N/A,,Clear,230,2014-01-24 04:55:00
11:15 PM,8.6,-4.0,57,30.71,10.0,SW,4.6,-,N/A,,Clear,220,2014-01-24 05:15:00
11:35 PM,8.6,-4.0,57,30.70,10.0,SSW,3.5,-,N/A,,Clear,210,2014-01-24 05:35:00
11:55 PM,6.8,-4.0,61,30.69,10.0,SSW,4.6,-,N/A,,Clear,200,2014-01-24 05:55:00